This demonstration page uses our WeatherBlox Daily Observations layout. Learn more.

Left ArrowRight Arrow

41.55636, -103.73856

Hourly Observations for October 18, 2021

Temp ( °F °C ) Dew Point ( °F °C ) Humidity (%) Winds ( mph kmh ) Pressure ( in mb ) Visibility ( mi km ) Precip ( " mm )
12:58 am 00:58 Clear 55 12.9 19 -7.1 24 24 N N/A 29.83 1010 10 16 N/A
1:58 am 01:58 Clear 48 8.8 20 -6.4 34 34 SSW 6 9 29.83 1010 10 16 N/A
2:58 am 02:58 Clear 40 4.2 23 -4.8 52 52 SW 7 11 29.83 1010 10 16 N/A
3:58 am 03:58 Clear 43 6.1 22 -5.8 43 43 W 5 7 29.82 1010 10 16 N/A
4:58 am 04:58 Mostly Clear 38 3.4 24 -4.7 56 56 WSW 7 11 29.84 1010 10 16 N/A
5:58 am 05:58 Mostly Cloudy 39 4 24 -4.6 54 54 SSW 8 13 29.84 1010 10 16 N/A
6:58 am 06:58 Clear 40 4.6 25 -4.1 54 54 SW 7 11 29.83 1010 10 16 N/A
7:58 am 07:58 Sunny 41 4.8 27 -3 57 57 WSW 3 6 29.85 1011 10 16 N/A
8:58 am 08:58 Sunny 51 10.4 28 -2 42 42 SSW 5 7 29.84 1010 10 16 N/A
9:58 am 09:58 Sunny 59 15 31 -0.5 35 35 N N/A 29.81 1010 10 16 N/A
10:58 am 10:58 Sunny 66 19 27 -2.8 23 23 ENE 7 11 29.77 1008 10 16 N/A
11:58 am 11:58 Sunny 70 21.1 24 -4.6 17 17 E 8 13 29.77 1008 10 16 N/A
12:58 pm 12:58 Sunny 73 22.5 24 -4.4 16 16 E 6 9 29.71 1006 10 16 N/A
1:58 pm 13:58 Sunny 73 22.8 25 -3.9 17 17 N 5 7 29.72 1006 10 16 N/A
2:58 pm 14:58 Sunny 74 23.2 25 -3.8 16 16 ENE 9 15 29.71 1006 10 16 N/A
3:58 pm 15:58 Sunny 73 22.9 26 -3.5 17 17 ENE 12 19 29.70 1006 10 16 N/A
4:58 pm 16:58 Sunny 71 21.8 26 -3.5 18 18 E 10 17 29.70 1006 10 16 N/A
5:58 pm 17:58 Sunny 64 17.5 28 -2 27 27 E 9 15 29.73 1007 10 16 N/A
6:58 pm 18:58 Clear 60 15.3 29 -1.8 31 31 SSE 15 24 29.75 1008 10 16 N/A
7:58 pm 19:58 Clear 56 13.2 33 0.4 42 42 SSE 18 30 29.76 1008 10 16 N/A
8:58 pm 20:58 Clear 53 11.9 32 undefined 44 44 SSE 14 22 29.75 1008 10 16 N/A
9:58 pm 21:58 Clear 46 7.7 33 0.4 60 60 SE 7 11 29.74 1007 10 16 N/A
10:58 pm 22:58 Clear 46 8 32 undefined 57 57 E 8 13 29.72 1006 10 16 N/A
11:58 pm 23:58 Partly Cloudy 46 7.7 32 -0.1 58 58 E 5 7 29.71 1006 10 16 N/A

Powered by AerisWeather